owner,sensor,date,latitude,longitude,vertical_datum,wind_speed,wind_to_direction,wind_speed_of_gust,qcFlag 
LUMCON,ioos:station:LUMCON:101:1,2010-08-01T00:00:00Z,29.2533,-90.6633,1.0,5.1,220.0,6.7,'1111122,1111122,1111122' 
LUMCON,ioos:station:LUMCON:101:1,2010-08-01T01:00:00Z,29.2533,-90.6633,1.0,2.6,240.0,4.1,'1111122,1111122,1111122' 
LUMCON,ioos:station:LUMCON:101:1,2010-08-01T02:00:00Z,29.2533,-90.6633,1.0,2.6,280.0,4.1,'11111222,11111222,11111222' 
LUMCON,ioos:station:LUMCON:101:1,2010-08-01T03:00:00Z,29.2533,-90.6633,1.0,2.6,280.0,3.6,'1111122,1111122,1111122' 
LUMCON,ioos:station:LUMCON:101:1,2010-08-01T04:00:00Z,29.2533,-90.6633,1.0,3.6,270.0,4.1,'11111222,11111222,11111222' 
LUMCON,ioos:station:LUMCON:101:1,2010-08-01T05:00:00Z,29.2533,-90.6633,1.0,3.6,270.0,5.7,'11111222,11111222,11111222' 
LUMCON,ioos:station:LUMCON:101:1,2010-08-01T06:00:00Z,29.2533,-90.6633,1.0,3.1,280.0,4.1,'11111222,11111222,11111222' 
LUMCON,ioos:station:LUMCON:101:1,2010-08-01T07:00:00Z,29.2533,-90.6633,1.0,2.6,300.0,4.6,'11111222,11111222,11111222' 
LUMCON,ioos:station:LUMCON:101:1,2010-08-01T08:00:00Z,29.2533,-90.6633,1.0,3.1,300.0,4.6,'11111222,11111222,11111222' 
LUMCON,ioos:station:LUMCON:101:1,2010-08-01T09:00:00Z,29.2533,-90.6633,1.0,3.1,300.0,4.1,'11111222,11111222,11111222' 
LUMCON,ioos:station:LUMCON:101:1,2010-08-01T10:00:00Z,29.2533,-90.6633,1.0,3.6,300.0,4.6,'1111122,1111122,1111122' 
LUMCON,ioos:station:LUMCON:101:1,2010-08-01T11:00:00Z,29.2533,-90.6633,1.0,3.1,300.0,5.1,'11111222,11111222,11111222' 
LUMCON,ioos:station:LUMCON:101:1,2010-08-01T12:00:00Z,29.2533,-90.6633,1.0,3.1,320.0,4.6,'11111222,11111222,11111222' 
LUMCON,ioos:station:LUMCON:101:1,2010-08-01T13:00:00Z,29.2533,-90.6633,1.0,3.6,330.0,5.1,'11111222,11111222,11111222' 
LUMCON,ioos:station:LUMCON:101:1,2010-08-01T14:00:00Z,29.2533,-90.6633,1.0,4.1,330.0,5.7,'11111222,11111222,11111222' 
LUMCON,ioos:station:LUMCON:101:1,2010-08-01T15:00:00Z,29.2533,-90.6633,1.0,3.6,360.0,5.1,'1111122,1111122,1111122' 
LUMCON,ioos:station:LUMCON:101:1,2010-08-01T16:00:00Z,29.2533,-90.6633,1.0,3.1,0.0,4.6,'11111222,11111222,11111222' 
LUMCON,ioos:station:LUMCON:101:1,2010-08-01T17:00:00Z,29.2533,-90.6633,1.0,3.1,350.0,4.6,'1111122,1111122,1111122' 
LUMCON,ioos:station:LUMCON:101:1,2010-08-01T18:00:00Z,29.2533,-90.6633,1.0,1.5,30.0,3.1,'1111122,1111122,1111122' 
LUMCON,ioos:station:LUMCON:101:1,2010-08-01T19:00:00Z,29.2533,-90.6633,1.0,2.6,110.0,4.6,'1111122,1111122,1111122' 
LUMCON,ioos:station:LUMCON:101:1,2010-08-01T20:00:00Z,29.2533,-90.6633,1.0,3.1,170.0,4.6,'11111222,11111222,11111222' 
LUMCON,ioos:station:LUMCON:101:1,2010-08-01T21:00:00Z,29.2533,-90.6633,1.0,3.6,160.0,5.1,'11111222,11111222,11111222' 
LUMCON,ioos:station:LUMCON:101:1,2010-08-01T22:00:00Z,29.2533,-90.6633,1.0,3.1,160.0,4.6,'11111222,11111222,11111222' 
LUMCON,ioos:station:LUMCON:101:1,2010-08-01T23:00:00Z,29.2533,-90.6633,1.0,2.6,200.0,4.1,'11111222,11111222,11111222' 
LUMCON,ioos:station:LUMCON:101:1,2010-08-02T00:00:00Z,29.2533,-90.6633,1.0,3.1,200.0,4.1,'11111222,11111222,11111222' 
LUMCON,ioos:station:LUMCON:101:1,2010-08-02T01:00:00Z,29.2533,-90.6633,1.0,2.1,240.0,2.6,'1111122,1111122,1111122' 
LUMCON,ioos:station:LUMCON:101:1,2010-08-02T02:00:00Z,29.2533,-90.6633,1.0,2.1,230.0,2.6,'1111122,1111122,1111122' 
LUMCON,ioos:station:LUMCON:101:1,2010-08-02T03:00:00Z,29.2533,-90.6633,1.0,2.1,270.0,2.6,'11111222,11111222,11111222' 
LUMCON,ioos:station:LUMCON:101:1,2010-08-02T04:00:00Z,29.2533,-90.6633,1.0,1.5,260.0,2.1,'11111222,11111222,11111222' 
LUMCON,ioos:station:LUMCON:101:1,2010-08-02T05:00:00Z,29.2533,-90.6633,1.0,2.1,300.0,2.6,'11111222,11111222,11111222' 
LUMCON,ioos:station:LUMCON:101:1,2010-08-02T06:00:00Z,29.2533,-90.6633,1.0,2.1,290.0,2.6,'11111222,11111222,11111222' 
LUMCON,ioos:station:LUMCON:101:1,2010-08-02T07:00:00Z,29.2533,-90.6633,1.0,1.5,280.0,2.1,'11111222,11111222,11111222' 
LUMCON,ioos:station:LUMCON:101:1,2010-08-02T08:00:00Z,29.2533,-90.6633,1.0,1.5,310.0,2.1,'11111222,11111222,11111222' 
LUMCON,ioos:station:LUMCON:101:1,2010-08-02T09:00:00Z,29.2533,-90.6633,1.0,2.6,330.0,2.6,'11111222,11111222,11111222' 
LUMCON,ioos:station:LUMCON:101:1,2010-08-02T10:00:00Z,29.2533,-90.6633,1.0,2.6,320.0,3.6,'11111222,11111222,11111222' 
LUMCON,ioos:station:LUMCON:101:1,2010-08-02T11:00:00Z,29.2533,-90.6633,1.0,3.1,330.0,4.1,'11111222,11111222,11111222' 
LUMCON,ioos:station:LUMCON:101:1,2010-08-02T12:00:00Z,29.2533,-90.6633,1.0,2.6,320.0,3.6,'11111222,11111222,11111222' 
LUMCON,ioos:station:LUMCON:101:1,2010-08-02T13:00:00Z,29.2533,-90.6633,1.0,3.1,330.0,4.6,'11111222,11111222,11111222' 
LUMCON,ioos:station:LUMCON:101:1,2010-08-02T14:00:00Z,29.2533,-90.6633,1.0,4.1,340.0,5.1,'11111222,11111222,11111222' 
LUMCON,ioos:station:LUMCON:101:1,2010-08-02T15:00:00Z,29.2533,-90.6633,1.0,4.6,340.0,5.7,'11111222,11111222,11111222' 
LUMCON,ioos:station:LUMCON:101:1,2010-08-02T16:00:00Z,29.2533,-90.6633,1.0,3.1,330.0,4.6,'11111222,11111222,11111222' 
LUMCON,ioos:station:LUMCON:101:1,2010-08-02T17:00:00Z,29.2533,-90.6633,1.0,3.1,340.0,4.1,'11111222,11111222,11111222' 
LUMCON,ioos:station:LUMCON:101:1,2010-08-02T18:00:00Z,29.2533,-90.6633,1.0,1.5,110.0,4.6,'11111222,11111222,11111222' 
LUMCON,ioos:station:LUMCON:101:1,2010-08-02T19:00:00Z,29.2533,-90.6633,1.0,3.1,110.0,4.6,'11111222,11111222,11111222' 
LUMCON,ioos:station:LUMCON:101:1,2010-08-02T20:00:00Z,29.2533,-90.6633,1.0,4.1,140.0,5.1,'11111222,11111222,11111222' 
LUMCON,ioos:station:LUMCON:101:1,2010-08-02T22:00:00Z,29.2533,-90.6633,1.0,4.6,160.0,5.7,'11111222,11111222,11111222' 
LUMCON,ioos:station:LUMCON:101:1,2010-08-02T23:00:00Z,29.2533,-90.6633,1.0,3.1,170.0,4.6,'1111122,1111122,1111122' 
LUMCON,ioos:station:LUMCON:101:1,2010-08-03T00:00:00Z,29.2533,-90.6633,1.0,3.6,200.0,5.1,'1111122,1111122,1111122' 
LUMCON,ioos:station:LUMCON:101:1,2010-08-03T01:00:00Z,29.2533,-90.6633,1.0,2.6,170.0,3.6,'1111122,1111122,1111122' 
LUMCON,ioos:station:LUMCON:101:1,2010-08-03T02:00:00Z,29.2533,-90.6633,1.0,3.1,170.0,4.6,'1111122,1111122,1111122' 
LUMCON,ioos:station:LUMCON:101:1,2010-08-03T03:00:00Z,29.2533,-90.6633,1.0,2.6,180.0,3.6,'11111222,11111222,11111222' 
LUMCON,ioos:station:LUMCON:101:1,2010-08-03T04:00:00Z,29.2533,-90.6633,1.0,2.6,190.0,4.1,'1111122,1111122,1111122' 
LUMCON,ioos:station:LUMCON:101:1,2010-08-03T05:00:00Z,29.2533,-90.6633,1.0,2.6,190.0,3.1,'1111122,1111122,1111122' 
LUMCON,ioos:station:LUMCON:101:1,2010-08-03T06:00:00Z,29.2533,-90.6633,1.0,3.1,200.0,4.1,'11111222,11111222,11111222' 
LUMCON,ioos:station:LUMCON:101:1,2010-08-03T07:00:00Z,29.2533,-90.6633,1.0,2.6,190.0,3.6,'11111222,11111222,11111222' 
LUMCON,ioos:station:LUMCON:101:1,2010-08-03T08:00:00Z,29.2533,-90.6633,1.0,2.1,210.0,2.6,'11111222,11111222,11111222' 
LUMCON,ioos:station:LUMCON:101:1,2010-08-03T09:00:00Z,29.2533,-90.6633,1.0,2.1,240.0,2.6,'11111222,11111222,11111222' 
LUMCON,ioos:station:LUMCON:101:1,2010-08-03T10:00:00Z,29.2533,-90.6633,1.0,0.5,270.0,1.0,'11111222,11111222,11111222' 
LUMCON,ioos:station:LUMCON:101:1,2010-08-03T11:00:00Z,29.2533,-90.6633,1.0,1.5,250.0,2.1,'11111222,11111222,11111222' 
LUMCON,ioos:station:LUMCON:101:1,2010-08-03T12:00:00Z,29.2533,-90.6633,1.0,0.0,280.0,0.5,'11111222,11111222,11111222' 
LUMCON,ioos:station:LUMCON:101:1,2010-08-03T13:00:00Z,29.2533,-90.6633,1.0,0.5,340.0,1.0,'11111222,11111222,11111222' 
LUMCON,ioos:station:LUMCON:101:1,2010-08-03T14:00:00Z,29.2533,-90.6633,1.0,3.6,90.0,6.2,'11111222,11111222,11111222' 
LUMCON,ioos:station:LUMCON:101:1,2010-08-03T15:00:00Z,29.2533,-90.6633,1.0,2.1,70.0,3.6,'11111222,11111222,11111222' 
LUMCON,ioos:station:LUMCON:101:1,2010-08-03T16:00:00Z,29.2533,-90.6633,1.0,1.5,90.0,2.6,'11111222,11111222,11111222' 
LUMCON,ioos:station:LUMCON:101:1,2010-08-03T17:00:00Z,29.2533,-90.6633,1.0,3.1,30.0,4.1,'11111222,11111222,11111222' 
LUMCON,ioos:station:LUMCON:101:1,2010-08-03T18:00:00Z,29.2533,-90.6633,1.0,3.1,100.0,4.1,'1111122,1111122,1111122' 
LUMCON,ioos:station:LUMCON:101:1,2010-08-03T19:00:00Z,29.2533,-90.6633,1.0,2.1,130.0,3.6,'11111222,11111222,11111222' 
LUMCON,ioos:station:LUMCON:101:1,2010-08-03T20:00:00Z,29.2533,-90.6633,1.0,2.6,150.0,3.6,'1111122,1111122,1111122' 
LUMCON,ioos:station:LUMCON:101:1,2010-08-03T21:00:00Z,29.2533,-90.6633,1.0,3.1,160.0,3.6,'1111122,1111122,1111122' 
LUMCON,ioos:station:LUMCON:101:1,2010-08-03T22:00:00Z,29.2533,-90.6633,1.0,3.1,160.0,4.1,'1111122,1111122,1111122' 
LUMCON,ioos:station:LUMCON:101:1,2010-08-03T23:00:00Z,29.2533,-90.6633,1.0,2.1,150.0,4.1,'11111222,11111222,11111222' 
LUMCON,ioos:station:LUMCON:101:1,2010-08-04T00:00:00Z,29.2533,-90.6633,1.0,2.1,190.0,3.1,'1111122,1111122,1111122' 
LUMCON,ioos:station:LUMCON:101:1,2010-08-04T01:00:00Z,29.2533,-90.6633,1.0,2.6,210.0,3.1,'1111122,1111122,1111122' 
LUMCON,ioos:station:LUMCON:101:1,2010-08-04T02:00:00Z,29.2533,-90.6633,1.0,1.5,230.0,2.6,'11111222,11111222,11111222' 
LUMCON,ioos:station:LUMCON:101:1,2010-08-04T03:00:00Z,29.2533,-90.6633,1.0,1.5,220.0,2.1,'1111122,1111122,1111122' 
LUMCON,ioos:station:LUMCON:101:1,2010-08-04T08:00:00Z,29.2533,-90.6633,1.0,1.0,240.0,1.0,'11111222,11111222,11111222' 
LUMCON,ioos:station:LUMCON:101:1,2010-08-04T09:00:00Z,29.2533,-90.6633,1.0,0.5,320.0,1.0,'11111222,11111222,11111222' 
LUMCON,ioos:station:LUMCON:101:1,2010-08-04T10:00:00Z,29.2533,-90.6633,1.0,1.5,330.0,1.5,'11111222,11111222,11111222' 
LUMCON,ioos:station:LUMCON:101:1,2010-08-04T11:00:00Z,29.2533,-90.6633,1.0,1.0,290.0,1.0,'11111222,11111222,11111222' 
LUMCON,ioos:station:LUMCON:101:1,2010-08-04T12:00:00Z,29.2533,-90.6633,1.0,1.0,300.0,1.5,'11111222,11111222,11111222' 
LUMCON,ioos:station:LUMCON:101:1,2010-08-04T13:00:00Z,29.2533,-90.6633,1.0,1.5,330.0,2.1,'1111122,1111122,1111122' 
LUMCON,ioos:station:LUMCON:101:1,2010-08-04T14:00:00Z,29.2533,-90.6633,1.0,2.6,350.0,3.6,'1111122,1111122,1111122' 
LUMCON,ioos:station:LUMCON:101:1,2010-08-04T15:00:00Z,29.2533,-90.6633,1.0,2.6,320.0,3.6,'11111222,11111222,11111222' 
LUMCON,ioos:station:LUMCON:101:1,2010-08-04T16:00:00Z,29.2533,-90.6633,1.0,2.6,0.0,4.1,'11111222,11111222,11111222' 
LUMCON,ioos:station:LUMCON:101:1,2010-08-04T17:00:00Z,29.2533,-90.6633,1.0,2.6,40.0,3.6,'11111222,11111222,11111222' 
LUMCON,ioos:station:LUMCON:101:1,2010-08-04T18:00:00Z,29.2533,-90.6633,1.0,1.0,310.0,2.6,'11111222,11111222,11111222' 
LUMCON,ioos:station:LUMCON:101:1,2010-08-04T19:00:00Z,29.2533,-90.6633,1.0,2.6,220.0,3.6,'11111222,11111222,11111222' 
LUMCON,ioos:station:LUMCON:101:1,2010-08-04T20:00:00Z,29.2533,-90.6633,1.0,3.1,150.0,5.1,'11111222,11111222,11111222' 
LUMCON,ioos:station:LUMCON:101:1,2010-08-04T21:00:00Z,29.2533,-90.6633,1.0,3.1,190.0,4.6,'1111122,1111122,1111122' 
LUMCON,ioos:station:LUMCON:101:1,2010-08-04T22:00:00Z,29.2533,-90.6633,1.0,2.6,220.0,3.6,'1111122,1111122,1111122' 
LUMCON,ioos:station:LUMCON:101:1,2010-08-04T23:00:00Z,29.2533,-90.6633,1.0,3.1,240.0,4.1,'1111122,1111122,1111122' 
LUMCON,ioos:station:LUMCON:101:1,2010-08-05T00:00:00Z,29.2533,-90.6633,1.0,3.1,220.0,4.1,'1111122,1111122,1111122' 
LUMCON,ioos:station:LUMCON:101:1,2010-08-05T01:00:00Z,29.2533,-90.6633,1.0,3.1,240.0,3.6,'1111122,1111122,1111122' 
LUMCON,ioos:station:LUMCON:101:1,2010-08-05T02:00:00Z,29.2533,-90.6633,1.0,2.1,240.0,2.6,'1111122,1111122,1111122' 
LUMCON,ioos:station:LUMCON:101:1,2010-08-05T03:00:00Z,29.2533,-90.6633,1.0,1.5,250.0,2.6,'11111222,11111222,11111222' 
LUMCON,ioos:station:LUMCON:101:1,2010-08-05T04:00:00Z,29.2533,-90.6633,1.0,2.1,270.0,3.1,'1111122,1111122,1111122' 
LUMCON,ioos:station:LUMCON:101:1,2010-08-11T17:00:00Z,29.2533,-90.6633,1.0,5.7,10.0,6.7,'11111222,11111222,11111222' 
LUMCON,ioos:station:LUMCON:101:1,2010-08-11T18:00:00Z,29.2533,-90.6633,1.0,5.7,50.0,7.7,'11111222,11111222,11111222' 
LUMCON,ioos:station:LUMCON:101:1,2010-08-11T19:00:00Z,29.2533,-90.6633,1.0,5.7,60.0,7.7,'11111222,11111222,11111222' 
LUMCON,ioos:station:LUMCON:101:1,2010-08-11T20:00:00Z,29.2533,-90.6633,1.0,4.1,50.0,5.7,'11111222,11111222,11111222' 
LUMCON,ioos:station:LUMCON:101:1,2010-08-11T21:00:00Z,29.2533,-90.6633,1.0,4.6,50.0,7.2,'1111122,1111122,1111122' 
LUMCON,ioos:station:LUMCON:101:1,2010-08-11T22:00:00Z,29.2533,-90.6633,1.0,5.1,60.0,7.7,'11111222,11111222,11111222' 
LUMCON,ioos:station:LUMCON:101:1,2010-08-11T23:00:00Z,29.2533,-90.6633,1.0,4.1,50.0,5.7,'11111222,11111222,11111222' 
LUMCON,ioos:station:LUMCON:101:1,2010-08-12T00:00:00Z,29.2533,-90.6633,1.0,4.1,70.0,5.7,'11111222,11111222,11111222' 
LUMCON,ioos:station:LUMCON:101:1,2010-08-12T01:00:00Z,29.2533,-90.6633,1.0,2.1,80.0,4.1,'11111222,11111222,11111222' 
LUMCON,ioos:station:LUMCON:101:1,2010-08-12T02:00:00Z,29.2533,-90.6633,1.0,2.1,70.0,3.6,'11111222,11111222,11111222' 
LUMCON,ioos:station:LUMCON:101:1,2010-08-12T03:00:00Z,29.2533,-90.6633,1.0,2.1,80.0,3.1,'11111222,11111222,11111222' 
LUMCON,ioos:station:LUMCON:101:1,2010-08-12T04:00:00Z,29.2533,-90.6633,1.0,1.0,80.0,1.5,'11111222,11111222,11111222' 
LUMCON,ioos:station:LUMCON:101:1,2010-08-12T05:00:00Z,29.2533,-90.6633,1.0,0.5,20.0,0.5,'11111222,11111222,11111222' 
LUMCON,ioos:station:LUMCON:101:1,2010-08-12T06:00:00Z,29.2533,-90.6633,1.0,1.0,300.0,1.0,'11111222,11111222,11111222' 
LUMCON,ioos:station:LUMCON:101:1,2010-08-12T07:00:00Z,29.2533,-90.6633,1.0,1.5,280.0,2.1,'11111222,11111222,11111222' 
LUMCON,ioos:station:LUMCON:101:1,2010-08-12T08:00:00Z,29.2533,-90.6633,1.0,2.6,250.0,3.1,'11111222,11111222,11111222' 
LUMCON,ioos:station:LUMCON:101:1,2010-08-12T09:00:00Z,29.2533,-90.6633,1.0,2.6,270.0,4.1,'1111122,1111122,1111122' 
LUMCON,ioos:station:LUMCON:101:1,2010-08-12T10:00:00Z,29.2533,-90.6633,1.0,3.1,260.0,4.6,'11111222,11111222,11111222' 
LUMCON,ioos:station:LUMCON:101:1,2010-08-12T11:00:00Z,29.2533,-90.6633,1.0,4.6,260.0,5.7,'11111222,11111222,11111222' 
LUMCON,ioos:station:LUMCON:101:1,2010-08-12T12:00:00Z,29.2533,-90.6633,1.0,3.6,280.0,5.1,'11111222,11111222,11111222' 
LUMCON,ioos:station:LUMCON:101:1,2010-08-12T13:00:00Z,29.2533,-90.6633,1.0,6.2,320.0,8.8,'11111222,11111222,11111222' 
LUMCON,ioos:station:LUMCON:101:1,2010-08-12T14:00:00Z,29.2533,-90.6633,1.0,3.6,240.0,5.1,'1111122,1111122,1111122' 
LUMCON,ioos:station:LUMCON:101:1,2010-08-12T15:00:00Z,29.2533,-90.6633,1.0,3.6,280.0,5.1,'11111222,11111222,11111222' 
LUMCON,ioos:station:LUMCON:101:1,2010-08-12T16:00:00Z,29.2533,-90.6633,1.0,6.2,270.0,8.8,'11111222,11111222,11111222' 
LUMCON,ioos:station:LUMCON:101:1,2010-08-12T17:00:00Z,29.2533,-90.6633,1.0,5.7,280.0,8.8,'11111222,11111222,11111222' 
LUMCON,ioos:station:LUMCON:101:1,2010-08-12T18:00:00Z,29.2533,-90.6633,1.0,5.7,280.0,6.7,'11111222,11111222,11111222' 
LUMCON,ioos:station:LUMCON:101:1,2010-08-12T19:00:00Z,29.2533,-90.6633,1.0,5.1,290.0,7.7,'1111122,1111122,1111122' 
LUMCON,ioos:station:LUMCON:101:1,2010-08-12T20:00:00Z,29.2533,-90.6633,1.0,5.7,300.0,7.2,'11111222,11111222,11111222' 
LUMCON,ioos:station:LUMCON:101:1,2010-08-12T21:00:00Z,29.2533,-90.6633,1.0,3.6,290.0,5.1,'1111122,1111122,1111122' 
LUMCON,ioos:station:LUMCON:101:1,2010-08-12T22:00:00Z,29.2533,-90.6633,1.0,3.6,280.0,5.1,'1111122,1111122,1111122' 
LUMCON,ioos:station:LUMCON:101:1,2010-08-12T23:00:00Z,29.2533,-90.6633,1.0,4.6,270.0,5.7,'11111222,11111222,11111222' 
LUMCON,ioos:station:LUMCON:101:1,2010-08-13T00:00:00Z,29.2533,-90.6633,1.0,5.1,300.0,7.7,'11111222,11111222,11111222' 
LUMCON,ioos:station:LUMCON:101:1,2010-08-13T01:00:00Z,29.2533,-90.6633,1.0,1.0,340.0,2.6,'1111122,1111122,1111122' 
LUMCON,ioos:station:LUMCON:101:1,2010-08-13T02:00:00Z,29.2533,-90.6633,1.0,1.5,300.0,3.1,'11111222,11111222,11111222' 
LUMCON,ioos:station:LUMCON:101:1,2010-08-13T03:00:00Z,29.2533,-90.6633,1.0,1.5,280.0,2.1,'1111122,1111122,1111122' 
LUMCON,ioos:station:LUMCON:101:1,2010-08-13T04:00:00Z,29.2533,-90.6633,1.0,0.5,290.0,1.0,'11111222,11111222,11111222' 
LUMCON,ioos:station:LUMCON:101:1,2010-08-13T05:00:00Z,29.2533,-90.6633,1.0,1.0,260.0,1.5,'11111222,11111222,11111222' 
LUMCON,ioos:station:LUMCON:101:1,2010-08-13T06:00:00Z,29.2533,-90.6633,1.0,2.6,340.0,3.1,'11111222,11111222,11111222' 
LUMCON,ioos:station:LUMCON:101:1,2010-08-13T07:00:00Z,29.2533,-90.6633,1.0,0.5,280.0,1.0,'1111122,1111122,1111122' 
LUMCON,ioos:station:LUMCON:101:1,2010-08-13T08:00:00Z,29.2533,-90.6633,1.0,1.0,260.0,1.5,'11111222,11111222,11111222' 
LUMCON,ioos:station:LUMCON:101:1,2010-08-13T09:00:00Z,29.2533,-90.6633,1.0,4.1,240.0,5.1,'11111222,11111222,11111222' 
LUMCON,ioos:station:LUMCON:101:1,2010-08-13T10:00:00Z,29.2533,-90.6633,1.0,3.6,260.0,5.1,'11111222,11111222,11111222' 
LUMCON,ioos:station:LUMCON:101:1,2010-08-13T11:00:00Z,29.2533,-90.6633,1.0,3.6,250.0,4.6,'1111122,1111122,1111122' 
LUMCON,ioos:station:LUMCON:101:1,2010-08-13T12:00:00Z,29.2533,-90.6633,1.0,4.1,250.0,5.7,'1111122,1111122,1111122' 
LUMCON,ioos:station:LUMCON:101:1,2010-08-13T13:00:00Z,29.2533,-90.6633,1.0,4.6,250.0,6.7,'11111222,11111222,11111222' 
LUMCON,ioos:station:LUMCON:101:1,2010-08-13T15:00:00Z,29.2533,-90.6633,1.0,4.6,260.0,5.7,'1111122,1111122,1111122' 
LUMCON,ioos:station:LUMCON:101:1,2010-08-13T17:00:00Z,29.2533,-90.6633,1.0,3.6,280.0,6.2,'11111222,11111222,11111222' 
LUMCON,ioos:station:LUMCON:101:1,2010-08-13T18:00:00Z,29.2533,-90.6633,1.0,6.2,260.0,8.8,'1111122,1111122,1111122' 
LUMCON,ioos:station:LUMCON:101:1,2010-08-13T20:00:00Z,29.2533,-90.6633,1.0,3.6,200.0,6.7,'1111122,1111122,1111122' 
LUMCON,ioos:station:LUMCON:101:1,2010-08-13T21:00:00Z,29.2533,-90.6633,1.0,2.6,220.0,3.6,'11111222,11111222,11111222' 
LUMCON,ioos:station:LUMCON:101:1,2010-08-13T22:00:00Z,29.2533,-90.6633,1.0,5.1,240.0,6.7,'1111122,1111122,1111122' 
LUMCON,ioos:station:LUMCON:101:1,2010-08-13T23:00:00Z,29.2533,-90.6633,1.0,4.6,250.0,6.2,'11111222,11111222,11111222' 
LUMCON,ioos:station:LUMCON:101:1,2010-08-14T00:00:00Z,29.2533,-90.6633,1.0,3.6,250.0,5.1,'11111222,11111222,11111222' 
LUMCON,ioos:station:LUMCON:101:1,2010-08-14T01:00:00Z,29.2533,-90.6633,1.0,3.1,240.0,5.1,'1111122,1111122,1111122' 
LUMCON,ioos:station:LUMCON:101:1,2010-08-14T02:00:00Z,29.2533,-90.6633,1.0,2.6,240.0,3.6,'1111122,1111122,1111122' 
LUMCON,ioos:station:LUMCON:101:1,2010-08-14T03:00:00Z,29.2533,-90.6633,1.0,2.1,240.0,3.1,'1111122,1111122,1111122' 
LUMCON,ioos:station:LUMCON:101:1,2010-08-14T04:00:00Z,29.2533,-90.6633,1.0,3.1,240.0,3.6,'11111222,11111222,11111222' 
LUMCON,ioos:station:LUMCON:101:1,2010-08-14T05:00:00Z,29.2533,-90.6633,1.0,2.1,230.0,2.6,'11111222,11111222,11111222' 
LUMCON,ioos:station:LUMCON:101:1,2010-08-14T06:00:00Z,29.2533,-90.6633,1.0,3.1,220.0,4.1,'11111222,11111222,11111222' 
LUMCON,ioos:station:LUMCON:101:1,2010-08-14T07:00:00Z,29.2533,-90.6633,1.0,3.6,210.0,4.6,'11111222,11111222,11111222' 
LUMCON,ioos:station:LUMCON:101:1,2010-08-14T08:00:00Z,29.2533,-90.6633,1.0,3.6,220.0,5.1,'11111222,11111222,11111222' 
LUMCON,ioos:station:LUMCON:101:1,2010-08-14T09:00:00Z,29.2533,-90.6633,1.0,3.6,230.0,5.1,'11111222,11111222,11111222' 
LUMCON,ioos:station:LUMCON:101:1,2010-08-14T10:00:00Z,29.2533,-90.6633,1.0,3.1,250.0,4.1,'11111222,11111222,11111222' 
LUMCON,ioos:station:LUMCON:101:1,2010-08-14T11:00:00Z,29.2533,-90.6633,1.0,3.1,220.0,4.1,'11111222,11111222,11111222' 
LUMCON,ioos:station:LUMCON:101:1,2010-08-14T12:00:00Z,29.2533,-90.6633,1.0,2.6,240.0,3.1,'11111222,11111222,11111222' 
LUMCON,ioos:station:LUMCON:101:1,2010-08-14T13:00:00Z,29.2533,-90.6633,1.0,3.6,240.0,5.1,'11111222,11111222,11111222' 
LUMCON,ioos:station:LUMCON:101:1,2010-08-14T14:00:00Z,29.2533,-90.6633,1.0,5.7,230.0,7.2,'1111122,1111122,1111122' 
LUMCON,ioos:station:LUMCON:101:1,2010-08-14T15:00:00Z,29.2533,-90.6633,1.0,4.6,250.0,6.2,'1111122,1111122,1111122' 
LUMCON,ioos:station:LUMCON:101:1,2010-08-14T16:00:00Z,29.2533,-90.6633,1.0,4.6,260.0,6.2,'1111122,1111122,1111122' 
LUMCON,ioos:station:LUMCON:101:1,2010-08-14T17:00:00Z,29.2533,-90.6633,1.0,4.6,250.0,6.7,'11111222,11111222,11111222' 
LUMCON,ioos:station:LUMCON:101:1,2010-08-14T18:00:00Z,29.2533,-90.6633,1.0,5.1,250.0,7.2,'11111222,11111222,11111222' 
LUMCON,ioos:station:LUMCON:101:1,2010-08-14T19:00:00Z,29.2533,-90.6633,1.0,5.7,230.0,7.7,'11111222,11111222,11111222' 
LUMCON,ioos:station:LUMCON:101:1,2010-08-14T20:00:00Z,29.2533,-90.6633,1.0,4.6,230.0,7.7,'11111222,11111222,11111222' 
LUMCON,ioos:station:LUMCON:101:1,2010-08-14T21:00:00Z,29.2533,-90.6633,1.0,5.1,250.0,7.7,'1111122,1111122,1111122' 
LUMCON,ioos:station:LUMCON:101:1,2010-08-14T22:00:00Z,29.2533,-90.6633,1.0,4.6,250.0,7.7,'1111122,1111122,1111122' 
LUMCON,ioos:station:LUMCON:101:1,2010-08-14T23:00:00Z,29.2533,-90.6633,1.0,4.1,270.0,6.2,'11111222,11111222,11111222' 
LUMCON,ioos:station:LUMCON:101:1,2010-08-15T00:00:00Z,29.2533,-90.6633,1.0,3.1,250.0,4.6,'11111222,11111222,11111222' 
LUMCON,ioos:station:LUMCON:101:1,2010-08-15T01:00:00Z,29.2533,-90.6633,1.0,3.6,230.0,4.6,'11111222,11111222,11111222' 
LUMCON,ioos:station:LUMCON:101:1,2010-08-15T02:00:00Z,29.2533,-90.6633,1.0,3.1,240.0,4.6,'11111222,11111222,11111222' 
LUMCON,ioos:station:LUMCON:101:1,2010-08-15T03:00:00Z,29.2533,-90.6633,1.0,3.1,220.0,4.6,'1111122,1111122,1111122' 
LUMCON,ioos:station:LUMCON:101:1,2010-08-15T04:00:00Z,29.2533,-90.6633,1.0,3.6,220.0,4.6,'11111222,11111222,11111222' 
LUMCON,ioos:station:LUMCON:101:1,2010-08-15T05:00:00Z,29.2533,-90.6633,1.0,2.6,230.0,3.6,'11111222,11111222,11111222' 
LUMCON,ioos:station:LUMCON:101:1,2010-08-15T06:00:00Z,29.2533,-90.6633,1.0,2.1,240.0,2.6,'11111222,11111222,11111222' 
LUMCON,ioos:station:LUMCON:101:1,2010-08-15T07:00:00Z,29.2533,-90.6633,1.0,3.1,230.0,3.6,'11111222,11111222,11111222' 
LUMCON,ioos:station:LUMCON:101:1,2010-08-15T08:00:00Z,29.2533,-90.6633,1.0,5.1,210.0,7.2,'11111222,11111222,11111222' 
LUMCON,ioos:station:LUMCON:101:1,2010-08-15T09:00:00Z,29.2533,-90.6633,1.0,2.6,230.0,4.1,'1111122,1111122,1111122' 
LUMCON,ioos:station:LUMCON:101:1,2010-08-15T10:00:00Z,29.2533,-90.6633,1.0,2.6,250.0,4.6,'1111122,1111122,1111122' 
LUMCON,ioos:station:LUMCON:101:1,2010-08-15T11:00:00Z,29.2533,-90.6633,1.0,3.6,240.0,4.6,'11111222,11111222,11111222' 
LUMCON,ioos:station:LUMCON:101:1,2010-08-15T12:00:00Z,29.2533,-90.6633,1.0,3.6,260.0,4.6,'11111222,11111222,11111222' 
LUMCON,ioos:station:LUMCON:101:1,2010-08-15T13:00:00Z,29.2533,-90.6633,1.0,2.1,290.0,3.1,'11111222,11111222,11111222' 
LUMCON,ioos:station:LUMCON:101:1,2010-08-15T14:00:00Z,29.2533,-90.6633,1.0,4.1,280.0,5.7,'11111222,11111222,11111222' 
LUMCON,ioos:station:LUMCON:101:1,2010-08-15T15:00:00Z,29.2533,-90.6633,1.0,8.8,340.0,9.3,'11111222,11111222,11111222' 
LUMCON,ioos:station:LUMCON:101:1,2010-08-15T16:00:00Z,29.2533,-90.6633,1.0,3.6,260.0,5.7,'11111222,11111222,11111222' 
LUMCON,ioos:station:LUMCON:101:1,2010-08-15T17:00:00Z,29.2533,-90.6633,1.0,5.1,290.0,7.2,'1111122,1111122,1111122' 
LUMCON,ioos:station:LUMCON:101:1,2010-08-15T18:00:00Z,29.2533,-90.6633,1.0,4.1,310.0,6.2,'1111122,1111122,1111122' 
LUMCON,ioos:station:LUMCON:101:1,2010-08-15T19:00:00Z,29.2533,-90.6633,1.0,4.1,270.0,5.7,'11111222,11111222,11111222' 
LUMCON,ioos:station:LUMCON:101:1,2010-08-15T20:00:00Z,29.2533,-90.6633,1.0,5.1,260.0,6.7,'1111122,1111122,1111122' 
LUMCON,ioos:station:LUMCON:101:1,2010-08-15T21:00:00Z,29.2533,-90.6633,1.0,4.1,260.0,5.7,'11111222,11111222,11111222' 
LUMCON,ioos:station:LUMCON:101:1,2010-08-15T22:00:00Z,29.2533,-90.6633,1.0,3.6,270.0,4.6,'11111222,11111222,11111222' 
LUMCON,ioos:station:LUMCON:101:1,2010-08-15T23:00:00Z,29.2533,-90.6633,1.0,4.1,260.0,5.1,'11111222,11111222,11111222' 
LUMCON,ioos:station:LUMCON:101:1,2010-08-16T00:00:00Z,29.2533,-90.6633,1.0,3.6,280.0,5.1,'1111122,1111122,1111122' 
LUMCON,ioos:station:LUMCON:101:1,2010-08-16T01:00:00Z,29.2533,-90.6633,1.0,2.1,300.0,3.1,'1111122,1111122,1111122' 
LUMCON,ioos:station:LUMCON:101:1,2010-08-16T02:00:00Z,29.2533,-90.6633,1.0,1.5,290.0,1.5,'1111122,1111122,1111122' 
LUMCON,ioos:station:LUMCON:101:1,2010-08-16T03:00:00Z,29.2533,-90.6633,1.0,5.7,50.0,8.2,'11111222,11111222,11111222' 
LUMCON,ioos:station:LUMCON:101:1,2010-08-16T04:00:00Z,29.2533,-90.6633,1.0,4.1,20.0,6.2,'11111222,11111222,11111222' 
LUMCON,ioos:station:LUMCON:101:1,2010-08-16T05:00:00Z,29.2533,-90.6633,1.0,2.1,20.0,2.6,'11111222,11111222,11111222' 